Location: Melita
(38.4566°N, 122.6369°W)
Time: 10:53:46
(UTC+00:00)

SL-16 R/B - Pass Details

Date: 24 January 2020
Orbit: 842 x 846 km, 71.0° (Epoch: 16 February)

Event Time Altitude Azimuth Distance (km) Brightness Sun altitude
Rises 13:41:42 0° 204° (SSW) 3,385 5.2 -19.6°
Reaches altitude 10° 13:44:08 10° 205° (SSW) 2,455 4.5 -19.2°
Maximum altitude 13:49:46 80° 292° (WNW) 861 2.1 -18.1°
Drops below altitude 10° 13:55:28 10° 20° (NNE) 2,472 4.7 -17.0°
Sets 13:57:55 0° 22° (NNE) 3,411 5.5 -16.5°
